Location: Unspecified
(48.2082°N, 0.0000°E)
Time: 22:25:52
(UTC+00:00)

Altair - Pass Details

Date: 23 June 2019
Orbit: 1501 x 1683 km, 47.2° (Epoch: 12 October)

Event Time Altitude Azimuth Distance (km) Brightness Sun altitude
Rises 18:01:37 0° 200° (SSW) 4,663 10.1 17.3°
Reaches altitude 10° 18:05:07 10° 189° (S) 3,705 9.5 16.8°
Maximum altitude 18:12:45 29° 134° (SE) 2,567 8.4 15.6°
Drops below altitude 10° 18:20:38 10° 79° (E) 3,834 9.1 14.3°
Sets 18:24:18 0° 69° (ENE) 4,851 9.7 13.7°
